KT4FD Weather Reports


Display with metric or nautical units.
time (UTC)temp
F
wind
direction
speed
MPH
gust
MPH
rain 1hr
in
rain 24hr
in
rain mn
in
humidity
%
barometer
mb
20260905210003 86 355 3.0 8.0 0.00 0.00 0.00 69 1013.2
20260905205003 87 355 2.0 3.0 0.00 0.00 0.00 68 1013.1
20260905204003 88 355 2.0 6.0 0.00 0.00 0.00 65 1012.9
20260905203003 90 355 2.0 9.0 0.00 0.00 0.00 63 1012.9
20260905202003 92 355 1.0 9.0 0.00 0.00 0.00 57 1013.1
20260905201003 92 348 2.0 8.0 0.00 0.00 0.00 58 1013.2
20260905164003 89 0 1.0 8.0 0.00 0.00 0.00 63 1014.8
20260905163003 89 0 3.0 6.0 0.00 0.00 0.00 64 1015.1
20260905162003 88 355 2.0 9.0 0.00 0.00 0.00 66 1015.0
20260905161003 88 355 2.0 10.0 0.00 0.00 0.00 66 1015.1
20260905160003 88 355 8.0 12.0 0.00 0.00 0.00 65 1015.3
20260905155002 87 329 2.0 8.0 0.00 0.00 0.00 66 1015.4
20260905133003 74 314 0.0 0.0 0.00 0.00 0.00 91 1016.3
20260905132003 74 314 0.0 1.0 0.00 0.00 0.00 91 1016.3
20260905131003 73 314 0.0 0.0 0.00 0.00 0.00 91 1016.4
20260905130003 72 314 0.0 0.0 0.00 0.00 0.00 91 1016.3
20260905125003 71 314 0.0 0.0 0.00 0.00 0.00 91 1016.2
20260905124003 71 314 0.0 0.0 0.00 0.00 0.00 91 1016.1
20260905123003 71 314 0.0 0.0 0.00 0.00 0.00 91 1016.3
20260905122003 71 314 0.0 2.0 0.00 0.00 0.00 91 1016.3
20260905121003 70 314 0.0 0.0 0.00 0.00 0.00 91 1016.1
20260905120004 70 314 0.0 0.0 0.00 0.00 0.00 91 1016.1
20260905115002 70 314 0.0 0.0 0.00 0.00 0.00 91 1015.9
20260905114003 70 314 0.0 0.0 0.00 0.00 0.00 91 1015.8